TimePDT,TemperatureF,Dew PointF,Humidity,Sea Level PressureIn,VisibilityMPH,Wind Direction,Wind SpeedMPH,Gust SpeedMPH,PrecipitationIn,Events,Conditions,WindDirDegrees,DateUTC
12:53 AM,64.9,41.0,42,29.96,-9999.0,South,10.4,-,N/A,,Unknown,180,2013-08-31 07:53:00
1:53 AM,66.9,46.0,47,29.95,-9999.0,Calm,Calm,-,N/A,,Unknown,0,2013-08-31 08:53:00
2:53 AM,64.0,42.1,45,29.95,-9999.0,SSW,4.6,-,N/A,,Unknown,200,2013-08-31 09:53:00
3:53 AM,59.0,43.0,55,29.95,-9999.0,SSE,3.5,-,N/A,,Unknown,160,2013-08-31 10:53:00
4:53 AM,57.9,43.0,58,29.95,-9999.0,South,4.6,-,N/A,,Unknown,180,2013-08-31 11:53:00
5:53 AM,57.9,44.1,60,29.96,-9999.0,SSE,4.6,-,N/A,,Unknown,160,2013-08-31 12:53:00
6:53 AM,57.9,45.0,62,29.99,-9999.0,South,5.8,-,N/A,,Unknown,190,2013-08-31 13:53:00
7:53 AM,64.9,45.0,48,29.99,-9999.0,SW,6.9,-,N/A,,Unknown,220,2013-08-31 14:53:00
8:53 AM,71.1,46.9,42,29.99,-9999.0,SW,4.6,-,N/A,,Unknown,230,2013-08-31 15:53:00
9:53 AM,73.9,48.0,40,29.99,-9999.0,SW,4.6,-,N/A,,Unknown,220,2013-08-31 16:53:00
10:53 AM,78.1,46.9,33,29.98,-9999.0,East,5.8,-,N/A,,Unknown,90,2013-08-31 17:53:00
11:53 AM,79.0,42.1,27,29.96,-9999.0,North,3.5,-,N/A,,Unknown,360,2013-08-31 18:53:00
12:53 PM,84.9,45.0,25,29.90,-9999.0,North,-9999.0,-,N/A,,Unknown,0,2013-08-31 19:53:00
1:53 PM,88.0,44.1,22,29.86,-9999.0,North,6.9,-,N/A,,Unknown,10,2013-08-31 20:53:00
2:53 PM,86.0,44.1,23,29.86,-9999.0,NNE,4.6,-,N/A,,Unknown,30,2013-08-31 21:53:00
3:53 PM,77.0,48.0,36,29.91,-9999.0,SSW,26.5,36.8,N/A,,Unknown,210,2013-08-31 22:53:00
3:57 PM,75.0,50.0,41,30.15,-9999.0,SSW,21.9,36.8,N/A,,Unknown,200,2013-08-31 22:57:00
4:53 PM,77.0,48.0,36,29.91,-9999.0,ESE,8.1,-,N/A,,Unknown,120,2013-08-31 23:53:00
5:53 PM,77.0,48.0,36,29.93,-9999.0,NE,13.8,-,N/A,,Unknown,50,2013-09-01 00:53:00
6:26 PM,75.0,52.0,44,30.17,-9999.0,SE,13.8,-,N/A,,Unknown,140,2013-09-01 01:26:00
6:53 PM,73.9,51.1,45,29.95,-9999.0,SE,8.1,-,N/A,,Unknown,140,2013-09-01 01:53:00
7:53 PM,72.0,50.0,46,29.93,-9999.0,SSE,11.5,-,N/A,,Unknown,160,2013-09-01 02:53:00
8:53 PM,70.0,48.9,47,29.91,-9999.0,SSW,10.4,-,N/A,,Unknown,210,2013-09-01 03:53:00
9:53 PM,70.0,48.9,47,29.91,-9999.0,South,5.8,-,N/A,,Unknown,180,2013-09-01 04:53:00
10:53 PM,68.0,48.9,50,29.91,-9999.0,South,6.9,-,N/A,,Unknown,190,2013-09-01 05:53:00
11:53 PM,66.0,50.0,56,29.91,-9999.0,SE,5.8,-,N/A,,Unknown,140,2013-09-01 06:53:00